Location: ???????
(55.3754°N, 39.3545°E)
Time: 01:48:53
(UTC+00:00)

Cosmos 2100 Rocket - Pass Details

Date: 14 April 2026
Orbit: 956 x 999 km, 82.9° (Epoch: 20 May)

Event Time Altitude Azimuth Distance (km) Brightness Sun altitude
Exits shadow 20:47:46 57° 171° (S) 1,124 3.9 -24.6°
Maximum altitude 20:49:06 79° 98° (E) 982 3.9 -24.6°
Drops below altitude 10° 20:55:18 10° 13° (NNE) 2,714 7.2 -24.7°
Sets 20:57:49 0° 12° (NNE) 3,670 8.2 -24.8°
